sat.trackr.live / text

‹ back to catalog

STARLINK-2703

NORAD 48452 · 2021-040AA

PAYLOAD ACTIVE UNKNOWN

§ Identity

Operator
Country
US
Launch date
2021-05-09
Launch site
AFETR
Launch vehicle
Mass (kg)
RCS (m²)

Purposes: comms

External: N2YO · Heavens-Above · Gunter

§ Orbital elements

Epoch: 2026-05-25T03:09:30.595968Z

Period
94.01 min
Inclination
53.1583°
Eccentricity
0.0001169
Mean motion
15.31699425 rev/d
Perigee alt
469.9 km
Apogee alt
471.5 km
Semi-major
6,848.9 km
B*
2.7380e-5
RAAN
182.5925°
Arg perigee
81.1873°
Mean anomaly
278.9260°
Rev number
27,839

§ Raw data

STARLINK-27031 48452U 21040AA  26145.13160412  .00000485  00000+0  27380-4 0  99962 48452  53.1583 182.5925 0001169  81.1873 278.9260 15.31699425278395

JSON: /api/v1/satellites/48452 · /tle

For live sub-satellite position, see the globe view (requires WebGL).

§ Visibility from observer

Set your observer location to see the next 7 days of passes ≥ 10°. The values pass through the URL so the page stays shareable.

No JS? Fill the form by hand. The geolocation button needs JavaScript.